Terminal Aerodrome Forecast
Issued by NWS Charleston, WV

Current Version | Previous Version | Graphics & Text | Print | Product List | Glossary On
Versions: 1 2 3 4 5 6 7 8 9 10 11 12 13 14 15 16 17 18 19 20 21 22 23 24 25 26 27 28 29 30
000
FTUS41 KRLX 010800 AAA
TAFPKB
TAF AMD
KPKB 010825Z 0108/0206 21004KT P6SM SCT008 OVC015
      TEMPO 0108/0110 4SM SHRA BR BKN008
     FM011000 19002KT 4SM BR OVC008
     FM011300 21004KT 6SM BR OVC012
     FM011500 23005KT P6SM BKN030
     FM011600 24007KT P6SM BKN035
     FM011900 23008KT P6SM SCT040
     FM020100 21003KT P6SM SCT035=

USA.gov is the U.S. government's official web portal to all federal, state and local government web resources and services.